Location: Bauersach School (historical)
(38.0926°N, 89.4806°W)
Time: 03:54:27
(UTC+00:00)

Cosmos 1602 Rocket - Pass Details

Date: 11 December 2025
Orbit: 596 x 626 km, 82.5° (Epoch: 21 January)

Event Time Altitude Azimuth Distance (km) Brightness Sun altitude
Rises 23:16:58 0° 352° (N) 2,891 6.8 -7.7°
Reaches altitude 10° 23:19:13 10° 352° (N) 1,977 6.0 -8.1°
Maximum altitude 23:23:36 87° 265° (W) 614 3.6 -8.8°
Drops below altitude 10° 23:27:54 10° 175° (S) 1,943 6.3 -9.6°
Sets 23:30:05 0° 175° (S) 2,837 7.2 -10.0°
